Location: Barraute
(43.3872°N, 0.8954°W)
Time: 12:19:44
(UTC+00:00)

Daily predictions for brighter satellites

Satellite Brightness Start Highest point End
(mag) Time Altitude Azimuth Time Altitude Azimuth Time Altitude Azimuth
SPOT 5 2.8 19:22:51 10° SSE 19:27:17 57° ENE 19:31:34 10° N
NOSS 3-4 (A) 3.7 19:22:32 10° SW 19:27:43 63° NW 19:33:26 10° NNE
NOSS 3-4 (C) 3.7 19:23:02 10° SW 19:28:15 63° NW 19:34:00 10° NNE
Cosmos 1656 Rocket 4.4 19:27:04 10° N 19:32:08 37° ENE 19:37:13 10° SE
Cosmos 1025 Rocket 4.4 19:29:47 10° NNE 19:33:05 21° ENE 19:36:23 10° ESE
Helios 1A Rocket 3.1 19:31:36 10° NE 19:34:30 30° E 19:37:21 10° SSE
Cosmos 1733 Rocket 3.1 19:30:39 10° S 19:34:54 56° E 19:39:13 10° NNE
CZ-4B R/B 4.0 19:31:35 10° SSE 19:35:12 50° ENE 19:38:58 10° N
Terra 2.8 19:32:38 10° SE 19:36:38 29° ENE 19:40:39 10° N
SJ-6B 3.5 19:33:33 10° S 19:37:06 50° W 19:40:37 10° NNW
Cosmos 2242 Rocket 3.8 19:33:03 10° N 19:37:25 53° E 19:41:42 10° SSE
BREEZE-M DEB (TANK) 3.3 19:35:43 10° NW 19:38:04 32° NNE 19:42:22 10° E
IRAS Rocket 4.3 19:34:21 10° SSE 19:39:46 65° ENE 19:45:12 10° N
Gblst 52 Del rocket 4.4 19:34:42 10° SW 19:40:30 88° SE 19:47:07 10° ENE
Resurs 01 Rocket 3.5 19:37:11 10° SSW 19:41:04 31° W 19:44:58 10° NNW
Cosmos 1821 Rocket 4.1 19:35:18 10° S 19:41:27 61° E 19:47:42 10° NNE
Cosmos 2237 Rocket 2.7 19:36:43 10° SSW 19:42:22 68° WNW 19:48:04 10° NNE
Meteor 2-15 4.4 19:37:19 10° S 19:43:22 80° E 19:49:29 10° N
Cosmos 1980 4.4 19:38:47 10° SW 19:44:22 61° WNW 19:49:57 10° NNE
Meteor 1-21 Rocket 4.5 19:41:37 10° NNW 19:47:19 77° W 19:53:05 10° S
Cosmos 2218 Rocket 4.0 19:41:19 10° S 19:47:28 88° WNW 19:53:40 10° N
CSL-04 Rocket 3.7 19:42:51 10° SSE 19:48:24 86° ENE 19:53:58 10° NNW
Meteor 2-15 Rocket 4.4 19:44:51 10° S 19:50:51 66° E 19:56:53 10° NNE
BREEZE-M DEB (TANK) 3.9 19:49:37 10° WNW 19:51:40 27° N 19:54:51 10° ENE
Cosmos 1346 Rocket 3.5 19:49:41 10° N 19:52:55 30° ENE 19:55:10 16° SE
SL-4 R/B 3.1 19:53:11 10° S 19:55:59 20° SE 19:57:34 16° E
Cosmos 1400 Rocket 2.5 19:52:50 10° S 19:56:26 87° E 20:00:04 10° N
OAO 3 Rocket 4.3 19:52:36 10° WSW 19:56:31 27° S 19:59:27 15° SE
BREEZE-M DEB (TANK) 3.9 19:53:04 10° S 19:56:36 35° ESE 20:06:05 10° NE
Cosmos 1812 0.3 19:56:46 22° S 19:57:38 68° E 19:59:17 10° NNE
SL-24 R/B 4.4 19:53:59 10° NNE 19:59:25 83° ESE 20:04:12 10° SSW
Meteor 1-31 Rocket 2.5 19:56:17 10° SSE 19:59:47 83° W 20:03:19 10° NNW
TIMED 4.4 19:56:39 10° NNW 20:00:56 85° ENE 20:04:50 12° SSE
Cosmos 1943 Rocket 3.9 19:57:13 10° NW 20:02:09 32° WSW 20:07:03 10° SSW
ASTEX 1 4.3 19:59:48 16° SE 20:02:51 29° ENE 20:07:05 10° NNE
Gbstr 26 Del rocket 4.3 19:58:25 10° S 20:02:56 26° SE 20:06:31 11° E
USA 59 Rocket -0.1 20:00:23 10° NW 20:03:56 78° SW 20:07:46 15° SSE
Feng Yun 1-1 Rocket 4.2 20:00:21 10° SSE 20:05:49 76° ENE 20:11:15 10° N
Cosmos 1869 4.4 20:06:00 19° E 20:06:28 20° E 20:09:07 10° NE
ADEOS 3.7 20:06:32 14° SSE 20:10:53 58° ENE 20:16:00 10° N
Cosmos 2369 Rocket 2.9 20:06:33 10° N 20:11:43 37° ENE 20:15:00 20° ESE
Aureole 3 4.4 20:07:20 10° N 20:12:39 80° W 20:18:50 10° S
USA 186 3.4 20:14:08 13° NE 20:14:08 13° NE 20:14:49 10° NNE
CBERS 1 LM4 rocket 4.3 20:10:01 14° SSE 20:14:07 73° ENE 20:18:54 10° N
RESURS DK-1 4.3 20:11:44 10° WSW 20:15:16 31° WNW 20:18:50 10° N
SL-08 R/B 3.5 20:11:06 10° NNE 20:15:53 51° E 20:20:37 10° S
MOS 1 4.2 20:10:24 10° SSE 20:16:00 82° ENE 20:21:42 10° NNW
Cosmos 2285 Rocket 4.1 20:12:35 10° S 20:18:47 56° ESE 20:24:57 10° NNE
Cosmos 2221 Rocket 3.9 20:16:14 10° N 20:20:29 46° ENE 20:22:40 25° SE
USA 234 3.2 20:14:57 10° NE 20:21:29 69° SE 20:28:01 10° SW
SKYMED 3 4.1 20:19:56 10° NNE 20:23:50 73° ESE 20:27:43 10° S
Cosmos 405 Rocket 4.2 20:23:09 10° NNE 20:24:26 15° ENE 20:24:26 15° ENE
Cosmos 1943 4.0 20:23:24 22° SE 20:25:43 29° ESE 20:30:31 10° NE
Molniya-1 2.8 20:24:27 10° SSW 20:26:55 79° SE 20:31:29 10° NE
CZ-4B R/B 4.4 20:27:35 16° ENE 20:27:35 16° ENE 20:29:43 10° NNE
CZ-4B DEB 4.5 20:22:32 10° S 20:27:57 68° WSW 20:33:28 10° NNW
CZ-4B R/B 3.2 20:23:42 15° SSE 20:28:27 87° ENE 20:34:09 10° NNW
Cosmos 2278 Rocket 4.3 20:24:38 10° NW 20:29:04 24° WSW 20:33:29 10° SSW
SL-8 R/B 4.0 20:26:21 10° WSW 20:31:04 67° NNW 20:35:45 10° ENE
OAO 2 Rocket 4.2 20:28:50 10° WSW 20:33:22 32° S 20:34:49 27° SSE
Cosmos 1975 Rocket 4.4 20:32:03 10° NNE 20:35:33 22° ENE 20:35:59 22° E
ERS-1 Rocket 3.3 20:33:53 13° S 20:38:16 65° WSW 20:43:15 10° NNW
Cosmos 1674 Rocket 4.0 20:37:46 10° NNW 20:42:03 59° W 20:45:17 17° S
NOSS 2-1 (D) 4.5 20:39:58 10° NW 20:43:24 38° WSW 20:45:49 21° S
Cosmos 2292 Rocket 3.4 20:41:38 10° NNW 20:45:41 66° W 20:47:05 33° SSW
Okean-O 2.6 20:44:32 38° SE 20:46:03 66° ENE 20:50:24 10° N
Cosmos 2298 Rocket 4.0 20:42:25 10° SSW 20:47:43 87° WNW 20:53:04 10° NNE
Cosmos 44 4.2 20:44:13 10° SW 20:49:09 55° NW 20:54:23 10° NNE
Cosmos 1908 Rocket 3.6 20:45:39 15° SSW 20:49:12 79° W 20:53:32 10° N
NOSS 2-1 (E) 4.3 20:48:14 10° NW 20:51:41 41° WSW 20:53:26 28° S
Okean O Rocket 1.4 20:53:05 42° SSE 20:54:31 85° ENE 20:58:52 10° NNW
IRS-1A Rocket 4.4 20:51:42 23° S 20:55:20 74° WSW 21:01:05 10° NNW
BREEZE-M DEB (TANK) 4.2 20:50:42 10° WNW 20:55:50 33° SW 20:56:25 31° SSW
CZ-4B R/B 4.0 20:55:25 35° E 20:56:15 38° ENE 21:00:37 10° N
CZ-4 R/B 3.7 20:55:04 10° SW 20:57:44 19° W 21:00:23 10° NW
Ariane Rocket 3.7 20:57:13 33° E 20:58:08 36° ENE 21:02:42 10° N
SL-16 R/B 2.7 20:52:52 10° SW 20:58:27 60° WNW 21:04:04 10° NNE
Cosmos 1782 Rocket 3.4 20:58:38 53° SSE 20:59:24 66° E 21:03:40 10° NNE
Cosmos 1934 Rocket 3.9 20:54:46 14° S 21:00:16 88° E 21:06:30 10° N
Geosat 4.0 20:57:20 10° NNE 21:02:21 81° WNW 21:07:20 10° SSW
Spot 2 Rocket 3.5 21:03:20 35° S 21:05:28 76° WSW 21:10:30 10° NNW
USA 245 4.0 21:05:18 49° ESE 21:06:20 62° ENE 21:11:45 10° N
Cosmos 1269 Rocket 4.3 21:04:14 10° N 21:09:22 51° ENE 21:10:20 45° E
MOS 1-B 4.4 21:06:46 32° S 21:09:34 77° WSW 21:15:23 10° NNW
ATLAS 5 CENTAUR R/B 3.7 21:07:21 10° N 21:09:53 16° NE 21:11:03 14° ENE
Cosmos 1140 Rocket 3.5 21:06:52 10° NNW 21:11:56 58° ENE 21:12:46 51° ESE
Terra 3.3 21:10:46 15° SSW 21:14:03 31° W 21:18:15 10° NNW
NOSS 3-1 (C) 4.0 21:12:05 10° NW 21:19:21 89° NE 21:23:02 39° SE
Cosmos 967 Rocket 4.5 21:14:10 10° NW 21:20:38 83° WSW 21:22:39 47° SSE
Cosmos 1862 4.3 21:20:37 10° N 21:22:56 34° NNE 21:22:56 34° NNE
Cosmos 1300 Rocket 4.3 21:25:04 32° SW 21:26:40 49° WNW 21:30:51 10° N
Cosmos 2058 3.7 21:24:41 10° N 21:27:31 40° NNE 21:27:31 40° NNE
Cosmos 407 Rocket 4.1 21:24:02 10° N 21:28:50 39° ENE 21:28:57 39° ENE
SL-4 R/B 3.3 21:29:12 10° WSW 21:31:14 30° WSW 21:31:14 30° WSW
Cosmos 371 Rocket 4.3 21:29:06 10° N 21:33:16 33° NE 21:33:16 33° NE
COSMOS 2455 3.1 21:34:31 10° NNW 21:40:25 53° NE 21:41:17 49° E
SJ 16-02 3.0 21:37:54 10° N 21:40:32 23° NE 21:40:32 23° NE
Cosmos 1315 Rocket 3.7 21:43:33 43° WNW 21:43:33 43° WNW 21:46:50 10° N
Gbstr 26 Del rocket 3.4 21:44:03 10° WSW 21:48:40 65° WNW 21:48:40 65° WNW
SPOT 3 Rocket 3.7 21:48:49 58° SW 21:49:25 62° WSW 21:54:33 10° NNW
Cosmos 1605 Rocket 4.1 21:47:33 39° SSW 21:49:51 68° W 21:55:59 10° N
Cosmos 2297 4.5 21:46:07 10° NW 21:51:31 43° WSW 21:52:39 38° SW
Lacrosse 5 rocket 3.5 21:51:35 10° NNW 21:52:47 16° N 21:52:47 16° N
Cosmos 2369 Rocket 3.3 21:50:39 10° NW 21:55:38 34° WSW 21:56:46 31° SW
SeaSat 1 4.3 21:56:42 19° NE 21:57:05 20° NE 22:00:33 10° N
Cosmos 2173 Rocket 4.2 22:03:21 52° ENE 22:03:21 52° ENE 22:08:42 10° NNE
USA 234 4.2 21:58:08 10° NE 22:04:18 45° NNW 22:10:27 10° W
Cosmos 1603 3.7 22:07:59 76° NE 22:07:59 76° NE 22:13:14 10° NNE
Cosmos 921 Rocket 4.0 22:03:23 10° NNW 22:06:41 45° NW 22:06:41 45° NW
Cosmos 1943 4.2 22:04:58 14° SW 22:09:30 44° WNW 22:14:55 10° NNE
Cosmos 1975 Rocket 4.5 22:09:21 10° NNW 22:12:59 32° W 22:12:59 32° W
Meteor 2-3 Rocket 4.2 22:09:17 10° N 22:14:03 49° NE 22:14:03 49° NE
NOSS 3-1 (A) 4.0 22:11:49 10° NW 22:19:11 85° SW 22:20:42 65° SSE
Cosmos 2100 Rocket 3.9 22:26:44 80° NE 22:26:44 80° NE 22:32:36 10° N
Ariane Rocket 4.5 22:37:17 28° W 22:37:17 28° W 22:41:21 10° NW
Cosmos 1656 4.1 22:40:01 10° NNW 22:44:20 55° N 22:44:20 55° N
ATLAS 3B R/B 4.3 22:45:07 10° NNW 22:51:56 31° NE 22:55:41 21° ENE
ATLAS 5 CENTAUR R/B 3.3 22:48:00 10° NW 22:50:11 31° NW 22:50:11 31° NW
Cosmos 1833 Rocket 4.1 23:01:17 29° NE 23:01:17 29° NE 23:04:06 10° NNE
Cosmos 1818 4.4 23:00:04 10° NW 23:03:52 46° NW 23:03:52 46° NW
Cosmos 1725 Rocket 4.2 23:08:52 68° NNW 23:08:52 68° NNW 23:14:29 10° N
DEBRIS 4.4 23:14:40 54° NW 23:15:24 60° N 23:28:44 10° ENE
Cosmos 2233 Rocket 4.3 23:18:32 63° N 23:18:32 63° N 23:23:42 10° N
SJ 16-02 3.8 23:15:49 10° NW 23:17:02 17° NW 23:17:02 17° NW
ATLAS 2AS CENTAUR R/B 2.9 23:25:29 63° NE 23:25:29 63° NE 23:31:06 10° NE
COSMOS 2455 4.5 23:21:02 10° NW 23:24:25 24° W 23:24:25 24° W
CZ-2C R/B 4.1 23:29:07 30° NE 23:29:07 30° NE 23:32:57 10° N
SeaSat 1 4.0 23:36:18 31° NW 23:36:18 31° NW 23:38:52 10° NNW
ACS3 Solar Sail 3.8 23:42:11 10° NE 23:44:47 15° ENE 23:44:47 15° ENE
Cosmos 1697 Rocket 3.7 23:43:20 10° NNW 23:47:06 44° NNW 23:47:06 44° NNW
